Wind_Speed
19 19 20 20 20 21 21 21 21 20 20 20 20 20 20 20 19 19 19 19 19 19 19 19 19 20 19 19 20 20 21 21 21 21 21 21 22 22 22 22 22 22 22
21 21 22 22 22 23 23 23 22 22 22 21 21 21 22 21 21 20 20 20 20 20 20 20 20 20 20 20 20 21 22 22 22 22 23 23 23 23 23 23 23 23 23
23 23 23 24 24 24 24 24 24 24 23 23 23 23 22 22 22 22 21 21 21 21 21 21 21 21 21 21 21 22 23 23 23 23 24 24 23 24 24 24 24 24 25
24 24 24 24 25 25 25 25 25 24 24 24 24 24 23 23 23 22 22 22 22 23 23 22 22 22 22 22 22 22 23 23 23 23 24 24 24 24 25 25 25 25 25
25 25 25 25 25 25 25 25 25 25 24 24 24 24 24 24 24 23 23 23 23 24 24 23 23 23 23 23 23 23 23 23 23 24 24 24 25 25 26 26 26 26 26
26 26 25 25 25 25 26 26 25 25 25 25 24 24 24 25 25 24 24 24 24 24 24 24 24 24 23 23 24 24 25 25 25 25 25 25 26 26 26 26 26 26 26
26 26 25 25 25 25 26 26 26 25 25 25 24 24 23 24 25 25 25 24 24 24 24 24 24 25 25 25 25 25 25 25 26 26 26 26 26 27 27 27 27 27 28
25 25 25 25 25 25 25 26 26 25 25 25 24 24 24 25 26 26 25 25 25 25 25 25 26 26 26 26 26 26 26 27 27 27 28 28 28 29 28 29 29 29 29
26 26 25 25 25 25 25 25 25 25 25 25 25 25 25 26 26 26 26 26 26 26 26 27 27 27 27 27 27 27 27 27 28 28 29 29 30 30 30 30 30 30 30
26 26 26 25 25 25 24 24 25 25 26 26 26 26 26 27 27 26 26 27 27 27 28 28 28 28 28 28 28 28 28 28 29 29 30 30 30 30 30 31 30 31 31
26 26 26 26 26 26 26 25 25 25 26 26 26 26 26 26 26 27 27 27 28 28 28 28 29 29 29 29 29 29 29 30 30 31 31 31 31 30 30 31 31 30 30
27 27 26 26 26 26 26 26 26 26 26 26 26 26 26 27 27 28 28 28 28 29 29 28 29 29 29 30 30 30 30 31 31 31 31 31 31 30 30 31 31 31 30
28 27 27 27 27 26 26 25 26 26 26 27 27 27 27 28 28 29 29 30 30 30 30 29 29 29 30 31 31 31 31 31 31 32 31 31 31 31 31 30 30 30 30
28 29 29 29 28 28 28 27 27 28 28 28 28 29 29 29 29 30 31 32 32 31 30 30 30 30 31 31 32 32 32 32 32 32 32 32 31 31 31 31 31 31 30
30 30 30 30 30 29 29 29 29 29 28 29 28 28 29 29 30 31 32 32 32 31 31 31 31 31 31 32 32 32 32 32 32 31 32 32 31 31 31 31 30 30 30
29 29 29 29 29 29 30 30 30 29 29 29 29 29 29 30 30 31 31 32 33 32 32 31 31 31 31 32 32 31 31 31 31 31 31 31 31 31 31 31 31 30 29
29 29 29 30 30 30 30 30 30 30 30 30 30 30 30 30 30 31 31 32 32 32 33 33 32 31 31 31 31 31 31 31 32 31 31 31 31 31 31 31 31 31 30
30 30 30 31 31 31 31 31 30 30 30 30 30 30 30 31 31 31 31 32 33 33 32 31 31 32 32 31 31 31 31 31 31 31 31 31 30 30 30 31 31 31 31
31 31 32 32 31 31 31 31 30 30 30 30 31 31 31 31 32 32 32 32 32 32 31 31 31 31 31 31 32 32 32 32 32 31 31 30 30 30 30 31 31 32 33
31 32 32 32 32 32 32 32 31 31 31 32 32 32 32 32 32 32 32 32 32 32 31 31 30 31 31 32 32 32 32 32 32 31 31 30 31 31 31 31 31 32 33
31 32 32 32 32 32 32 32 32 32 32 32 33 33 33 33 32 32 32 32 32 32 32 32 32 32 32 32 32 33 33 32 32 32 32 32 32 32 32 32 32 32 33
31 31 31 31 32 32 32 32 33 33 33 32 33 33 33 34 34 34 33 33 33 33 33 33 33 33 33 34 34 33 33 32 32 32 32 33 33 34 34 34 34 34 33
32 31 31 31 32 32 33 32 32 33 33 34 33 34 35 35 35 35 34 35 34 34 34 34 34 34 34 34 34 34 34 34 34 34 34 34 34 34 34 34 34 34 34
32 32 31 31 32 32 33 33 33 33 33 34 34 35 35 36 35 35 35 35 35 34 34 34 34 34 34 34 34 34 34 35 35 35 35 35 35 35 35 35 34 34 34
32 31 31 31 32 32 32 33 33 33 33 34 35 36 35 35 34 34 34 34 35 34 34 34 35 35 35 35 35 35 35 35 35 35 35 35 35 35 35 35 35 35 35
31 31 31 32 32 33 33 33 34 34 34 35 36 36 35 34 34 34 34 34 35 34 34 34 34 34 34 34 35 35 35 35 35 35 35 35 36 36 36 36 36 35 35
Wind_Direction
277 276 275 274 275 276 275 276 276 275 272 271 269 269 269 270 271 270 270 271 272 272 272 274 275 275 274 274 273 273 272 272 271 271 272 273 274 276 277 278 279 280 280
276 276 277 276 275 275 274 276 275 273 271 270 269 269 270 269 269 270 270 270 272 272 272 273 275 275 274 273 273 274 273 273 272 271 272 274 274 275 276 277 278 279 280
277 276 276 275 275 274 274 274 274 272 271 269 267 268 269 269 268 269 269 270 271 271 271 272 273 274 275 274 273 274 274 274 275 273 272 273 276 276 276 276 278 279 279
277 276 276 276 275 274 274 273 274 274 272 270 267 266 267 268 269 269 269 269 270 271 272 273 273 275 276 275 275 275 276 276 276 275 274 274 276 277 277 276 277 277 278
276 276 276 276 275 274 273 272 272 273 273 271 268 267 267 267 269 269 270 270 271 271 271 272 274 276 276 276 277 276 276 276 277 277 275 275 277 277 277 277 276 276 276
276 276 276 275 274 273 272 271 271 272 272 270 269 267 268 267 269 269 269 270 271 271 271 271 273 275 276 278 278 278 277 276 275 276 277 277 277 277 278 278 277 276 276
278 277 276 275 273 273 272 271 271 272 271 270 269 268 268 268 268 268 268 270 271 271 272 272 273 274 276 278 279 279 279 277 277 277 277 279 279 279 278 278 278 277 277
278 277 276 275 273 273 273 272 271 271 271 269 268 268 268 268 268 268 268 269 272 273 272 272 274 275 276 277 279 279 279 279 278 278 278 278 279 280 279 278 277 276 276
275 275 275 274 274 274 275 274 272 271 271 270 268 268 267 268 267 268 269 270 273 273 272 273 274 275 276 276 277 278 279 279 279 279 279 279 280 279 279 278 277 276 275
275 276 276 274 274 273 274 275 273 271 271 270 268 268 267 268 268 269 270 272 273 272 273 273 274 276 276 276 277 278 279 279 279 279 280 280 280 279 279 278 277 277 275
275 275 275 275 275 273 274 274 273 272 271 269 269 268 268 268 269 271 272 273 273 274 275 275 275 276 277 277 278 278 279 280 280 281 280 280 280 279 279 279 278 277 275
274 274 274 275 276 276 276 274 273 273 273 271 269 270 269 268 270 271 272 272 273 274 274 276 276 276 276 277 278 279 279 280 281 281 281 280 280 279 279 279 277 275 274
271 271 272 274 274 275 276 275 274 274 273 271 270 270 269 269 271 271 272 272 273 274 275 275 276 276 276 277 278 279 279 279 280 280 280 280 280 280 279 277 276 275 274
273 272 272 273 273 273 274 275 275 274 273 272 271 271 271 271 272 271 272 273 274 274 275 275 275 276 275 277 278 278 279 279 279 278 278 279 279 280 280 278 276 276 275
273 272 273 273 273 272 274 276 276 275 273 273 271 271 271 272 273 273 273 274 274 275 275 275 274 274 275 277 278 278 278 278 278 278 278 279 279 279 279 278 277 276 274
273 272 272 273 274 273 273 276 276 274 273 273 273 272 273 274 275 275 275 275 274 274 273 274 273 273 275 276 278 277 277 277 277 277 278 278 278 278 278 278 276 275 274
273 272 272 273 274 274 274 275 276 275 274 274 275 275 274 275 276 276 276 276 277 275 273 273 272 273 274 275 277 277 277 277 277 278 278 279 279 278 278 277 275 275 274
274 272 273 274 273 274 274 274 274 273 273 274 275 276 275 276 277 277 276 276 275 274 274 274 273 273 273 274 275 276 276 277 279 279 279 279 279 278 277 277 276 275 274
274 274 274 274 274 273 273 274 274 274 275 276 276 277 276 276 277 277 276 276 274 273 273 274 273 273 273 273 274 275 276 277 278 279 278 277 278 278 278 278 277 276 274
274 274 274 273 273 273 273 274 274 275 275 276 277 278 278 278 279 278 277 277 274 272 273 272 272 273 274 274 274 274 274 275 276 277 277 277 277 278 279 279 279 278 277
275 274 273 274 274 273 272 272 274 275 276 276 276 277 277 278 279 279 277 276 274 272 272 272 272 272 274 274 274 274 274 274 275 276 276 276 277 278 278 279 280 280 279
276 275 274 274 274 273 272 273 273 274 275 276 277 276 276 277 278 278 277 275 274 272 271 271 272 273 273 273 273 274 274 275 276 276 277 276 276 277 279 279 278 279 280
275 275 275 274 274 273 273 273 274 274 275 276 277 277 278 278 278 277 276 275 274 273 272 272 272 272 273 274 273 273 274 274 275 276 277 277 276 277 277 278 279 279 280
274 274 274 274 274 273 273 274 275 275 274 275 276 278 279 278 277 277 276 275 275 275 274 275 274 273 273 273 273 274 275 276 276 277 277 277 277 277 277 278 278 279 280
272 273 273 273 274 274 275 275 276 276 275 276 278 278 279 279 278 277 276 276 275 276 275 275 275 274 273 273 274 275 276 277 277 278 278 278 278 278 278 278 278 279 280
272 272 273 273 274 275 277 277 276 275 277 278 279 279 277 277 277 277 276 276 276 276 276 275 275 275 274 275 276 277 277 277 277 278 278 278 278 278 278 278 278 279 280
Height
5803 5803 5802 5802 5801 5801 5800 5799 5799 5798 5798 5797 5797 5797 5797 5796 5796 5796 5797 5797 5797 5797 5796 5796 5796 5796 5796 5796 5796 5796 5796 5796 5796 5796 5796 5796 5796 5795 5795 5795 5794 5794 5794
5798 5797 5796 5796 5795 5794 5793 5793 5792 5792 5791 5791 5791 5791 5791 5791 5791 5791 5791 5791 5791 5791 5791 5791 5791 5790 5790 5790 5790 5790 5790 5790 5790 5790 5790 5790 5790 5789 5789 5789 5788 5788 5787
5791 5790 5790 5789 5788 5787 5786 5786 5785 5785 5785 5784 5784 5784 5784 5784 5784 5784 5785 5785 5785 5785 5785 5785 5785 5784 5784 5784 5784 5784 5783 5783 5783 5783 5783 5783 5783 5783 5782 5782 5782 5781 5780
5783 5783 5782 5781 5781 5780 5779 5779 5778 5778 5778 5777 5777 5778 5778 5778 5778 5778 5778 5779 5779 5779 5779 5779 5779 5778 5778 5778 5778 5777 5777 5777 5776 5776 5776 5776 5776 5775 5775 5775 5775 5774 5773
5776 5775 5774 5774 5773 5772 5772 5771 5771 5771 5770 5770 5770 5770 5771 5771 5771 5772 5772 5772 5772 5772 5772 5772 5772 5772 5772 5771 5771 5771 5770 5770 5770 5770 5769 5769 5769 5768 5768 5767 5767 5766 5766
5768 5767 5766 5766 5765 5765 5764 5764 5764 5764 5763 5763 5763 5763 5764 5764 5765 5765 5765 5765 5765 5766 5766 5766 5766 5765 5765 5765 5764 5764 5764 5763 5763 5763 5762 5762 5761 5761 5760 5760 5759 5759 5759
5760 5759 5759 5758 5758 5757 5757 5756 5756 5756 5756 5755 5756 5756 5757 5757 5757 5757 5758 5758 5758 5759 5759 5759 5759 5759 5758 5758 5757 5757 5756 5755 5755 5755 5754 5754 5753 5752 5752 5751 5751 5750 5750
5752 5752 5751 5751 5750 5750 5750 5749 5749 5749 5749 5749 5749 5749 5750 5750 5750 5750 5750 5751 5751 5751 5751 5751 5751 5751 5751 5751 5750 5749 5748 5748 5747 5746 5746 5745 5744 5744 5743 5743 5742 5742 5741
5745 5744 5744 5743 5743 5743 5742 5742 5742 5742 5742 5742 5742 5742 5742 5743 5743 5743 5743 5744 5744 5744 5744 5743 5743 5743 5743 5742 5742 5741 5741 5740 5739 5738 5737 5736 5735 5734 5733 5733 5733 5732 5732
5738 5737 5736 5736 5735 5735 5735 5735 5734 5734 5734 5734 5734 5735 5735 5735 5735 5736 5736 5736 5736 5736 5735 5735 5735 5735 5734 5734 5733 5733 5732 5731 5730 5729 5728 5727 5726 5725 5724 5723 5722 5722 5722
5730 5730 5729 5728 5728 5728 5727 5727 5727 5727 5727 5727 5727 5727 5727 5728 5728 5728 5728 5728 5728 5728 5727 5727 5727 5726 5726 5725 5724 5724 5723 5722 5721 5720 5719 5717 5716 5715 5714 5713 5712 5712 5711
5723 5722 5722 5721 5720 5720 5720 5719 5719 5719 5719 5719 5719 5719 5719 5720 5720 5720 5720 5720 5719 5719 5719 5719 5718 5717 5717 5716 5716 5715 5714 5713 5712 5710 5709 5708 5707 5706 5704 5703 5702 5701 5701
5715 5714 5714 5714 5713 5712 5712 5712 5711 5711 5711 5711 5711 5711 5711 5712 5712 5712 5711 5711 5711 5710 5710 5709 5709 5708 5708 5707 5706 5705 5704 5703 5702 5701 5700 5699 5697 5696 5695 5693 5692 5692 5691
5706 5706 5705 5705 5705 5705 5704 5704 5703 5703 5703 5703 5703 5703 5703 5703 5703 5702 5702 5702 5701 5701 5700 5700 5699 5698 5698 5697 5696 5695 5694 5693 5692 5692 5690 5689 5688 5686 5685 5684 5683 5682 5682
5698 5697 5697 5696 5696 5696 5696 5695 5695 5695 5694 5694 5694 5694 5694 5694 5694 5693 5692 5692 5692 5691 5691 5690 5689 5689 5688 5687 5686 5685 5684 5683 5682 5681 5681 5679 5678 5677 5675 5674 5673 5673 5673
5688 5688 5688 5688 5687 5687 5687 5686 5685 5685 5685 5685 5685 5685 5684 5684 5684 5683 5682 5682 5681 5681 5680 5680 5679 5678 5678 5677 5676 5675 5674 5673 5673 5672 5671 5669 5668 5667 5666 5665 5664 5664 5663
5679 5679 5679 5678 5678 5678 5677 5677 5677 5676 5676 5676 5675 5675 5675 5674 5674 5673 5673 5672 5671 5670 5670 5669 5669 5668 5668 5667 5666 5665 5664 5664 5663 5662 5661 5659 5658 5657 5656 5656 5655 5655 5654
5669 5669 5669 5669 5668 5668 5668 5667 5667 5667 5667 5666 5666 5665 5665 5664 5664 5663 5662 5661 5661 5660 5659 5659 5659 5658 5657 5656 5656 5655 5654 5653 5653 5652 5650 5649 5648 5647 5647 5646 5646 5645 5645
5660 5659 5659 5659 5658 5658 5658 5657 5657 5657 5657 5656 5656 5656 5655 5654 5653 5653 5651 5651 5650 5649 5649 5649 5648 5647 5647 5646 5646 5645 5644 5643 5642 5641 5640 5640 5639 5638 5637 5636 5636 5635 5635
5650 5649 5649 5648 5648 5648 5648 5647 5647 5647 5647 5647 5646 5645 5645 5644 5643 5642 5641 5640 5640 5639 5639 5638 5638 5637 5637 5636 5635 5635 5634 5633 5632 5632 5631 5630 5629 5628 5628 5627 5626 5625 5625
5640 5639 5639 5638 5638 5638 5637 5637 5637 5637 5637 5636 5636 5635 5634 5633 5632 5631 5630 5630 5629 5629 5628 5627 5627 5626 5626 5625 5625 5624 5623 5623 5622 5621 5621 5620 5619 5618 5617 5617 5616 5615 5614
5629 5629 5629 5628 5628 5627 5627 5627 5627 5627 5626 5626 5625 5624 5623 5623 5622 5621 5620 5619 5618 5618 5617 5617 5616 5616 5615 5614 5614 5613 5613 5612 5611 5611 5610 5609 5609 5608 5607 5606 5605 5605 5604
5619 5619 5618 5618 5618 5617 5617 5617 5617 5616 5616 5615 5614 5613 5612 5612 5611 5609 5608 5608 5607 5606 5606 5605 5605 5604 5604 5603 5602 5602 5602 5601 5601 5600 5599 5599 5598 5597 5596 5595 5594 5594 5593
5609 5609 5608 5608 5608 5607 5607 5606 5606 5605 5605 5604 5603 5602 5601 5600 5599 5598 5597 5596 5595 5595 5594 5593 5593 5593 5592 5591 5591 5590 5590 5590 5589 5588 5588 5587 5587 5586 5585 5584 5583 5583 5582
5599 5599 5598 5598 5597 5597 5596 5596 5595 5595 5594 5593 5592 5591 5590 5588 5587 5586 5585 5584 5584 5583 5582 5582 5581 5581 5580 5580 5579 5579 5578 5578 5577 5576 5575 5575 5574 5574 5573 5573 5572 5572 5571
5589 5588 5588 5587 5587 5586 5586 5585 5584 5584 5583 5582 5580 5579 5578 5577 5576 5575 5574 5573 5572 5571 5571 5570 5569 5569 5568 5568 5567 5567 5566 5566 5565 5564 5563 5563 5562 5562 5562 5561 5561 5560 5559